Weather History for Louisville Bowman, KY

Change the Weather History Date:

Sunday, January 4, 2009

  Actual Average Record
Temperature  
Mean Temperature 49 °F 35 °F  
Max Temperature 61 °F 43 °F 69 °F (1997)
Min Temperature 36 °F 27 °F 1 °F (1959)
Degree Days  
Heating Degree Days 16 30  
Month to date heating degree days 99 120  
Since 1 July heating degree days 129 1784  
Cooling Degree Days 0 0  
Month to date cooling degree days 0 0  
Year to date cooling degree days 0 0  
Moisture  
Dew Point 49 °F    
Average Humidity 91    
Maximum Humidity 100    
Minimum Humidity 82    
Precipitation  
Precipitation 0.04 in 0.13 in 1.54 in (1952)
Month to date precipitation 0.17 0.52  
Year to date precipitation 0.17 0.52  
Snow  
Snow 0.00 in - - ()
Month to date snowfall 0.0  
Snow Depth 0.00 in    
Sea Level Pressure  
Sea Level Pressure 30.00 in    
Wind  
Wind Speed 7 mph (SW)    
Max Wind Speed 20 mph    
Max Gust Speed 23 mph    
Visibility 6 miles    
Events Rain    
T = Trace of Precipitation, MM = Missing Value Source: NWS Daily Summary

Daily Weather History Graph

Daily Weather History Graph

Search for Another Location

Airport:

Trip Planner

Search our weather history database for the weather conditions in past years. The results will help you decide how hot, cold, wet, or windy it might be!

Date:

Astronomy

Jan. 04, 2009 Rise Set
Actual Time 7:59 AM EST 5:36 PM EST
Civil Twilight 7:30 AM EST 6:05 PM EST
Nautical Twilight 6:57 AM EST 6:38 PM EST
Astronomical Twilight 6:25 AM EST 7:10 PM EST
Moon 12:05 PM EST (1/4) 12:46 AM EST (1/4)
Length of Visible Light 10h 35m
Length of Day
9h 36m
First Quarter, 52% of the Moon is Illuminated
Jan 4
First Quarter
Jan 10
Full
Jan 17
Last Quarter
Jan 26
New
Feb 2
First Quarter

Hourly Weather History & Observations

Time (EST) Temp. Windchill Dew Point Humidity Pressure Visibility Wind Dir Wind Speed Gust Speed Precip Events Conditions
12:53 AM 53.1 °F - 51.1 °F 93% 29.90 in 6.0 mi SE 3.5 mph - 0.01 in   Overcast
1:24 AM 53.6 °F - 53.6 °F 100% 29.90 in 5.0 mi Calm Calm - N/A   Overcast
1:53 AM 54.0 °F - 53.1 °F 97% 29.90 in 5.0 mi SSE 3.5 mph - 0.00 in   Overcast
2:16 AM 55.4 °F - 53.6 °F 94% 29.90 in 5.0 mi SSE 4.6 mph - 0.03 in   Overcast
2:53 AM 55.0 °F - 54.0 °F 96% 29.90 in 5.0 mi SSE 4.6 mph - 0.03 in   Overcast
3:39 AM 55.4 °F - 53.6 °F 94% 29.90 in 4.0 mi SSE 3.5 mph - N/A   Scattered Clouds
3:53 AM 55.9 °F - 55.0 °F 97% 29.90 in 4.0 mi Calm Calm - N/A   Scattered Clouds
4:07 AM 55.4 °F - 55.4 °F 100% 29.90 in 4.0 mi SSE 3.5 mph - N/A   Mostly Cloudy
4:53 AM 57.0 °F - 55.0 °F 93% 29.89 in 4.0 mi South 3.5 mph - N/A   Mostly Cloudy
5:10 AM 55.4 °F - 55.4 °F 100% 29.89 in 3.0 mi South 3.5 mph - N/A   Mostly Cloudy
5:24 AM 57.2 °F - 55.4 °F 94% 29.90 in 4.0 mi SSE 3.5 mph - N/A   Mostly Cloudy
5:53 AM 57.0 °F - 55.9 °F 96% 29.90 in 5.0 mi South 3.5 mph - N/A   Overcast
6:36 AM 57.2 °F - 55.4 °F 94% 29.91 in 6.0 mi South 3.5 mph - N/A   Overcast
6:53 AM 57.9 °F - 55.9 °F 93% 29.91 in 7.0 mi South 3.5 mph - N/A   Overcast
7:53 AM 59.0 °F - 55.9 °F 90% 29.94 in 10.0 mi SSW 4.6 mph - N/A   Overcast
8:53 AM 60.1 °F - 55.9 °F 86% 29.96 in 10.0 mi SSW 6.9 mph - N/A   Overcast
9:53 AM 61.0 °F - 55.0 °F 81% 29.97 in 10.0 mi South 5.8 mph - N/A   Overcast
10:53 AM 61.0 °F - 55.0 °F 81% 29.99 in 10.0 mi South 5.8 mph - N/A   Overcast
11:53 AM 60.1 °F - 55.9 °F 86% 29.99 in 10.0 mi SSW 6.9 mph - N/A   Overcast
12:37 PM 60.8 °F - 55.4 °F 82% 29.98 in 10.0 mi SSW 8.1 mph - N/A   Overcast
12:53 PM 60.1 °F - 55.9 °F 86% 29.98 in 3.0 mi SW 8.1 mph - N/A   Overcast
1:13 PM 59.0 °F - 57.2 °F 94% 29.98 in 2.0 mi SW 4.6 mph - N/A   Overcast
1:53 PM 59.0 °F - 57.0 °F 93% 29.98 in 2.0 mi WSW 6.9 mph - N/A   Overcast
2:30 PM 53.6 °F - 51.8 °F 94% 30.00 in 2.0 mi NW 16.1 mph - 0.00 in   Overcast
2:53 PM 51.1 °F - 48.9 °F 92% 30.02 in 2.0 mi WNW 16.1 mph - 0.00 in   Overcast
3:00 PM 50.0 °F - 48.2 °F 94% 30.02 in 4.0 mi WNW 15.0 mph - N/A   Overcast
3:51 PM 46.4 °F 40.7 °F 44.6 °F 93% 30.07 in 9.0 mi WNW 12.7 mph - N/A   Overcast
3:53 PM 46.9 °F - 44.1 °F 90% 30.08 in 9.0 mi WNW 11.5 mph - N/A   Overcast
4:12 PM 46.4 °F 41.1 °F 42.8 °F 87% 30.08 in 9.0 mi WNW 11.5 mph - N/A   Overcast
4:35 PM 44.6 °F 40.2 °F 42.8 °F 93% 30.09 in 8.0 mi WNW 8.1 mph - N/A   Overcast
4:53 PM 45.0 °F 38.9 °F 41.0 °F 86% 30.10 in 6.0 mi NW 12.7 mph - 0.00 in Rain Light Rain
5:53 PM 43.0 °F 37.2 °F 39.0 °F 86% 30.14 in 10.0 mi WNW 10.4 mph - 0.00 in   Overcast
6:53 PM 41.0 °F 34.3 °F 37.0 °F 86% 30.15 in 7.0 mi NW 11.5 mph - N/A   Overcast
7:53 PM 39.9 °F 32.9 °F 35.1 °F 83% 30.19 in 7.0 mi NW 11.5 mph - N/A   Overcast
8:53 PM 39.9 °F 33.9 °F 35.1 °F 83% 30.20 in 7.0 mi NW 9.2 mph - N/A   Overcast
9:53 PM 37.9 °F 32.7 °F 33.1 °F 83% 30.20 in 5.0 mi NW 6.9 mph - N/A   Haze
10:53 PM 37.0 °F 29.8 °F 32.0 °F 82% 30.22 in 6.0 mi NW 10.4 mph - N/A   Haze
11:53 PM 36.0 °F 28.0 °F 30.0 °F 79% 30.23 in 7.0 mi NW 11.5 mph - N/A   Overcast